Change the Weather History Date:

Wednesday, May 22, 2013

  Actual Average Record
Temperature  
Mean Temperature 69 °F 64 °F  
Max Temperature 75 °F 75 °F 93 °F (1941)
Min Temperature 62 °F 55 °F 35 °F (1883)
Degree Days  
Heating Degree Days 0 3  
Month to date heating degree days 69 118  
Since 1 July heating degree days 5362 5340  
Cooling Degree Days 4 3  
Month to date cooling degree days 77 37  
Year to date cooling degree days 86 52  
Growing Degree Days 20 (Base 50)    
Moisture  
Dew Point 61 °F    
Average Humidity 76    
Maximum Humidity 87    
Minimum Humidity 64    
Precipitation  
Precipitation 0.07 in 0.16 in 2.16 in (1989)
Month to date precipitation 2.64 3.62  
Year to date precipitation 20.97 15.97  
Snow  
Snow 0.00 in 0.00 in - ()
Month to date snowfall 0.0 0.0  
Since 1 July snowfall 34.5 25.9  
Snow Depth 0.00 in    
Sea Level Pressure  
Sea Level Pressure 29.74 in    
Wind  
Wind Speed 12 mph (SSW)    
Max Wind Speed 25 mph    
Max Gust Speed 33 mph    
Visibility 10 miles    
Events Rain    
T = Trace of Precipitation, MM = Missing Value Source: NWS Daily Summary

Daily Weather History Graph

Daily Weather History Graph

Search for Another Location

Airport or City:

Trip Planner

Search our weather history database for the weather conditions in past years. The results will help you decide how hot, cold, wet, or windy it might be!

Date:

Astronomy

May. 22, 2013 Rise Set
Actual Time 6:24 AM EDT 8:59 PM EDT
Civil Twilight 5:53 AM EDT 9:30 PM EDT
Nautical Twilight 5:14 AM EDT 10:09 PM EDT
Astronomical Twilight 4:31 AM EDT 10:53 PM EDT
Moon 6:21 PM EDT (5/22) 4:28 AM EDT (5/22)
Length of Visible Light 15h 37m
Length of Day
14h 34m
Waxing Gibbous, 91% of the Moon is Illuminated
May 22
Waxing Gibbous
May 25
Full
May 31
Last Quarter
Jun 8
New
Jun 16
First Quarter

Hourly Weather History & Observations

Time (EDT) Temp. Dew Point Humidity Pressure Visibility Wind Dir Wind Speed Gust Speed Precip Events Conditions
12:54 AM 68.0 °F 64.9 °F 90% 29.75 in 10.0 mi South 6.9 mph - 0.08 in   Overcast
1:54 AM 68.0 °F 64.0 °F 87% 29.75 in 10.0 mi South 9.2 mph - N/A   Overcast
2:54 AM 66.0 °F 63.0 °F 90% 29.76 in 10.0 mi SSW 11.5 mph - N/A   Overcast
3:23 AM 66.2 °F 62.6 °F 88% 29.77 in 10.0 mi SSW 15.0 mph - N/A   Overcast
3:54 AM 66.0 °F 62.1 °F 87% 29.75 in 10.0 mi South 13.8 mph - N/A   Overcast
4:50 AM 66.2 °F 60.8 °F 83% 29.75 in 10.0 mi South 9.2 mph - N/A   Overcast
4:54 AM 66.0 °F 61.0 °F 84% 29.73 in 10.0 mi South 11.5 mph - N/A   Overcast
5:54 AM 66.0 °F 61.0 °F 84% 29.72 in 10.0 mi South 15.0 mph - N/A   Overcast
6:29 AM 66.2 °F 60.8 °F 83% 29.76 in 10.0 mi SSW 10.4 mph - N/A   Overcast
6:54 AM 66.0 °F 61.0 °F 84% 29.75 in 10.0 mi SSW 10.4 mph - N/A   Overcast
7:34 AM 66.2 °F 62.6 °F 88% 29.75 in 7.0 mi SSW 11.5 mph - 0.00 in   Light Drizzle
7:54 AM 66.0 °F 62.1 °F 87% 29.74 in 5.0 mi SSW 10.4 mph - 0.00 in   Light Drizzle
8:22 AM 64.4 °F 62.6 °F 94% 29.76 in 10.0 mi SSW 9.2 mph - 0.00 in Rain Light Rain
8:54 AM 66.0 °F 63.0 °F 90% 29.73 in 10.0 mi SSE 8.1 mph - 0.00 in   Overcast
9:24 AM 66.2 °F 62.6 °F 88% 29.74 in 10.0 mi SSE 10.4 mph - N/A   Overcast
9:41 AM 66.2 °F 62.6 °F 88% 29.74 in 10.0 mi South 15.0 mph - N/A   Mostly Cloudy
9:54 AM 66.9 °F 63.0 °F 87% 29.74 in 10.0 mi South 13.8 mph - N/A   Mostly Cloudy
10:11 AM 66.2 °F 62.6 °F 88% 29.76 in 10.0 mi South 16.1 mph 24.2 mph N/A   Mostly Cloudy
10:21 AM 69.8 °F 62.6 °F 78% 29.75 in 10.0 mi South 17.3 mph 23.0 mph N/A   Scattered Clouds
10:54 AM 71.1 °F 63.0 °F 75% 29.74 in 10.0 mi SSW 11.5 mph - N/A   Mostly Cloudy
11:19 AM 71.6 °F 62.6 °F 73% 29.76 in 10.0 mi SSW 16.1 mph 21.9 mph N/A   Mostly Cloudy
11:52 AM 69.8 °F 60.8 °F 73% 29.76 in 10.0 mi SSW 19.6 mph 28.8 mph N/A   Mostly Cloudy
11:54 AM 70.0 °F 60.1 °F 71% 29.74 in 10.0 mi South 19.6 mph 27.6 mph N/A   Mostly Cloudy
12:54 PM 69.1 °F 59.0 °F 70% 29.75 in 10.0 mi SW 17.3 mph 25.3 mph 0.00 in Rain Light Rain
1:13 PM 68.0 °F 60.8 °F 78% 29.77 in 8.0 mi SSW 20.7 mph 24.2 mph 0.00 in Rain Light Rain
1:54 PM 68.0 °F 60.1 °F 76% 29.75 in 10.0 mi SSW 20.7 mph - 0.00 in   Mostly Cloudy
2:54 PM 71.1 °F 60.1 °F 68% 29.74 in 10.0 mi SSW 17.3 mph 26.5 mph N/A   Mostly Cloudy
3:54 PM 73.9 °F 62.1 °F 66% 29.73 in 10.0 mi SSW 16.1 mph 21.9 mph N/A   Mostly Cloudy
4:54 PM 73.9 °F 60.1 °F 62% 29.70 in 10.0 mi SSW 18.4 mph 21.9 mph N/A   Mostly Cloudy
5:28 PM 69.8 °F 57.2 °F 64% 29.72 in 10.0 mi West 12.7 mph 25.3 mph N/A   Mostly Cloudy
5:54 PM 68.0 °F 61.0 °F 78% 29.72 in 10.0 mi WSW 9.2 mph - 0.02 in Rain Light Rain
6:54 PM 71.1 °F 59.0 °F 66% 29.72 in 10.0 mi WSW 12.7 mph - 0.00 in   Mostly Cloudy
7:54 PM 70.0 °F 59.0 °F 68% 29.72 in 10.0 mi WSW 4.6 mph - N/A   Mostly Cloudy
8:54 PM 66.9 °F 60.1 °F 79% 29.74 in 4.0 mi NW 5.8 mph - 0.03 in Rain Heavy Rain
9:54 PM 66.9 °F 57.9 °F 73% 29.75 in 10.0 mi West 6.9 mph - 0.02 in   Mostly Cloudy
10:54 PM 64.0 °F 55.9 °F 75% 29.77 in 10.0 mi SW 5.8 mph - N/A   Mostly Cloudy
11:54 PM 64.9 °F 57.9 °F 78% 29.78 in 10.0 mi WNW 9.2 mph - 0.00 in   Overcast